[Iaude] MPEC A32: 2022 OY78 [a=0.95,e=0.19,i=13.2,H=26.3]

mpec at marsden.cfa.harvard.edu mpec at marsden.cfa.harvard.edu
Wed Jan 3 13:56:19 EST 2024


M.P.E.C. 2024-A32                               Issued 2024 January 3, 18:54 UT

     The Minor Planet Electronic Circulars contain information on unusual
         minor planets, routine data on comets and natural satellites,
         and occasional editorial announcements.  They are published
    on behalf of Division F of the International Astronomical Union by the
          Minor Planet Center, Smithsonian Astrophysical Observatory,
                          Cambridge, MA 02138, U.S.A.
			  
             Prepared using the Tamkin Foundation Computer Network

                              MPC at CFA.HARVARD.EDU
            URL https://www.minorplanetcenter.net/    ISSN 1523-6714

                                   2022 OY78                                    


Observations:
     K22O78Y ZC2022 07 22.32961321 09 10.25 +39 07 51.9                VEA032I41
     K22O78Y ZC2022 07 22.32996121 09 08.86 +39 07 50.6                VEA032I41
     K22O78Y ZC2022 07 22.36161921 07 03.67 +39 06 14.1                VEA032I41
     K22O78Y ZC2022 07 22.36196621 07 02.21 +39 06 12.2                VEA032I41
     K22O78Y ZC2022 07 22.38679121 05 25.44 +39 04 43.3                VEA032I41
     K22O78Y* C2022 07 22.88668120 39 47.63 +38 24 16.4          19.1 RoEA032K88
     K22O78Y  C2022 07 22.88883520 39 41.54 +38 24 06.4          19.0 RoEA032K88
     K22O78Y  C2022 07 22.89314220 39 29.09 +38 23 47.5          18.9 RoEA032K88
     K22O78Y ZC2022 07 23.29540420 23 08.26 +37 50 57.0                VEA032I41
     K22O78Y ZC2022 07 23.36786220 20 17.27 +37 44 33.7                VEA032I41
     K22O78Y  C2022 07 31.28829018 53 30.153+31 16 45.19         21.96GVEA032F52
     K22O78Y  C2022 07 31.30044718 53 27.015+31 16 29.46         22.06GVEA032F52

Observer details:
F52 Pan-STARRS 2, Haleakala.  Observers J. Herman, T. Lowe, P. Minguez, A.
    Schultz, I. Smith.  Measurers K. Chambers, T. de Boer, J. Fairlamb, H.
    Gao, M. Huber, C.-C. Lin, E. Magnier, Y. Ramanjooloo, R. Wainscoat, R.
    Weryk.  1.8-m Ritchey-Chretien + CCD.
I41 Palomar Mountain--ZTF.  Observer Z. T. F. Collaboration.  Measurer K.
    Sarneczky.  1.2-m f/2.44 Oschin Schmidt + CCD.
K88 GINOP-KHK, Piszkesteto.  Observer K. Sarneczky.  0.60-m Schmidt + CCD.

Orbital elements:
2022 OY78                                                Earth MOID = 0.0015 AU
Epoch 2023 Sept. 13.0 TT = JDT 2460200.5                Veres                   
M 184.66782              (2000.0)            P               Q                  
n   1.05727990     Peri.  240.36216     -0.97826461     -0.03701242             
a   0.9542805      Node   296.84623     +0.13328885     -0.86598167             
e   0.1852477      Incl.   13.21919     -0.15884721     -0.49870415             
P   0.93           H   26.38          G   0.15           U   6                  
Residuals in seconds of arc
220722 I41  0.1-  0.3+    220722 I41  0.5-  0.4+    220723 I41  0.2-  0.5-
220722 I41  0.1-  0.0     220722 K88 (1.1-  0.8+)   220723 I41  0.2+  0.3+
220722 I41  0.9+  0.3+    220722 K88  0.3+  0.1+    220731 F52  0.2+  0.3+
220722 I41  0.2-  0.5-    220722 K88  0.3-  0.1-    220731 F52  0.2-  0.3-

Ephemeris:
2022 OY78                a,e,i = 0.95, 0.19, 13                  q = 0.7775
Date    TT    R. A. (2000) Decl.     Delta      r    Elong.  Phase     V
2023 12 04    19 24 19.4 +53 35 23   0.1772  0.9823    83.7    85.9    25.6
...
2023 12 19    19 21 13.9 +37 25 25   0.1387  0.9337    64.9   107.3    26.0
...
2023 12 27    19 16 24.8 +23 19 39   0.1225  0.9072    48.6   125.5    26.9
...
2024 01 02    19 11 23.2 +09 34 18   0.1172  0.8875    33.1   142.7    28.7
2024 01 03    19 10 29.4 +07 05 38   0.1171  0.8842    30.4   145.8    29.2
2024 01 04    19 09 35.5 +04 35 29   0.1174  0.8810    27.6   148.8    29.7
...
2024 01 10    19 04 25.3 -10 11 12   0.1248  0.8621    12.6   165.6
...
2024 01 18    18 59 43.5 -26 11 09   0.1506  0.8385    14.1   163.4    34.2
...
2024 02 02    19 05 46.7 -41 08 23   0.2346  0.8022    34.2   136.4    29.2

M. P. C. Staff               (C) Copyright 2024 MPC           M.P.E.C. 2024-A32





More information about the Iaude mailing list